Location: *
(0.1100°N, 5.5000°E)
Time: 14:59:57
(UTC+00:00)

Cosmos 540 Rocket - Pass Details

Date: 07 December 2022
Orbit: 739 x 753 km, 74.1° (Epoch: 02 February)

Event Time Altitude Azimuth Distance (km) Brightness Sun altitude
Rises 17:58:15 0° 180° (S) 3,170 7.0 -6.7°
Reaches altitude 10° 18:00:43 10° 173° (S) 2,245 6.1 -7.2°
Maximum altitude 18:05:31 43° 102° (ESE) 1,031 3.8 -8.3°
Drops below altitude 10° 18:10:18 10° 31° (NNE) 2,238 5.4 -9.4°
Enters shadow 18:11:33 - 27° (NNE) 2,707 5.9 -9.7°
